User: anonymous   Login
Location: Newark
(49.3000°N, 9.4667°E)
Time: 03:39:42
(UTC+00:00)
Language:

Vanguard 3 - Orbit

View from above orbital plane
View from above orbital plane
View from above satellite
View from above satellite

Ground track
Ground track

The orbit data is extracted from the following two-line orbital elements,

1    20U 59007A   19145.40302807  .00000159  00000-0  66117-4 0  9997
2    20  33.3422 128.0239 1666522   3.0067 357.9245 11.55640369185616
Epoch (UTC): 25 May 2019 09:40:21
Eccentricity: 0.1666522
inclination: 33.3422°
perigee height: 508 km
apogee height: 3263 km
right ascension of ascending node: 128.0239°
argument of perigee: 3.0067°
revolutions per day: 11.55640369
mean anomaly at epoch: 357.9245°
orbit number at epoch: 18561

The dashed part of the orbit path shows where the satellite is in the earth's shadow,  

DLR